• In Hungary
  • List of Countries
  • For 7 days
  • Water Temperature
  • Satellite Maps
  • Weather Map
  • News
  • Weather Widgets
  • user-avatar
    Login

    Hourly Weather Smiechowice

    Today, 24 October, Wednesday

    Time Temperature Precipitation Wind Pressure Humidity
    00:00 +8°C° 0.9 mm 10 mps 739 mmHg 79%
    01:00 +8°C° 0.9 mm 10 mps 739 mmHg 78%
    02:00 +8°C° 0.6 mm 10 mps 739 mmHg 78%
    03:00 +7°C° 0.6 mm 10 mps 739 mmHg 77%
    04:00 +7°C° 0.6 mm 10 mps 738 mmHg 76%
    05:00 +6°C° 0.2 mm 9 mps 739 mmHg 74%
    06:00 +6°C° 0.2 mm 9 mps 740 mmHg 72%
    07:00 +5°C° 0.2 mm 8 mps 740 mmHg 70%
    08:00 +6°C° 0.1 mm 9 mps 741 mmHg 65%
    09:00 +6°C° 0.1 mm 10 mps 742 mmHg 59%
    10:00 +7°C° 0.1 mm 10 mps 743 mmHg 54%
    11:00 +7°C° 0.1 mm 10 mps 743 mmHg 53%
    12:00 +7°C° 0.1 mm 10 mps 743 mmHg 52%
    13:00 +7°C° 0.1 mm 10 mps 744 mmHg 51%
    14:00 +7°C° 0 mm 9 mps 744 mmHg 51%
    15:00 +7°C° 0 mm 8 mps 745 mmHg 51%
    16:00 +6°C° 0 mm 7 mps 745 mmHg 51%
    17:00 +5°C° 0 mm 7 mps 746 mmHg 53%
    18:00 +5°C° 0 mm 6 mps 747 mmHg 55%
    19:00 +4°C° 0 mm 6 mps 747 mmHg 57%
    20:00 +5°C° 0 mm 5 mps 748 mmHg 60%
    21:00 +5°C° 0 mm 5 mps 748 mmHg 64%
    22:00 +3°C° 0 mm 5 mps 749 mmHg 67%
    23:00 +3°C° 0 mm 5 mps 749 mmHg 70%

    Tomorrow, 25 October, Thursday

    Time Temperature Precipitation Wind Pressure Humidity
    00:00 +3°C° 0 mm 5 mps 749 mmHg 73%
    01:00 +3°C° 0 mm 5 mps 749 mmHg 76%
    02:00 +4°C° 0 mm 4 mps 748 mmHg 78%
    03:00 +4°C° 0 mm 4 mps 748 mmHg 79%
    04:00 +4°C° 0 mm 4 mps 747 mmHg 81%
    05:00 +5°C° 0.8 mm 4 mps 746 mmHg 83%
    06:00 +5°C° 0.8 mm 5 mps 746 mmHg 86%
    07:00 +6°C° 0.8 mm 5 mps 745 mmHg 88%
    08:00 +8°C° 0.5 mm 6 mps 745 mmHg 84%
    09:00 +9°C° 0.5 mm 7 mps 744 mmHg 81%
    10:00 +11°C° 0.5 mm 9 mps 744 mmHg 77%
    11:00 +11°C° 0.1 mm 9 mps 744 mmHg 78%
    12:00 +11°C° 0.1 mm 9 mps 743 mmHg 78%
    13:00 +11°C° 0.1 mm 9 mps 743 mmHg 78%
    14:00 +11°C° 0.1 mm 9 mps 743 mmHg 79%
    15:00 +10°C° 0.1 mm 8 mps 743 mmHg 79%
    16:00 +10°C° 0.1 mm 8 mps 743 mmHg 80%
    17:00 +10°C° 0.2 mm 8 mps 744 mmHg 80%
    18:00 +10°C° 0.2 mm 7 mps 744 mmHg 80%
    19:00 +10°C° 0.2 mm 7 mps 744 mmHg 80%
    20:00 +9°C° 0.1 mm 6 mps 745 mmHg 81%
    21:00 +9°C° 0.1 mm 5 mps 745 mmHg 81%
    22:00 +8°C° 0.1 mm 4 mps 745 mmHg 81%
    23:00 +8°C° 0 mm 4 mps 745 mmHg 82%

    Day after tomorrow, 26 October, Friday

    Time Temperature Precipitation Wind Pressure Humidity
    00:00 +7°C° 0 mm 4 mps 745 mmHg 82%
    01:00 +7°C° 0 mm 4 mps 745 mmHg 83%
    02:00 +7°C° 0 mm 4 mps 745 mmHg 84%
    03:00 +7°C° 0 mm 4 mps 745 mmHg 84%
    04:00 +6°C° 0 mm 4 mps 745 mmHg 85%
    05:00 +8°C° 0 mm 3 mps 745 mmHg 86%
    06:00 +8°C° 0 mm 3 mps 745 mmHg 87%
    07:00 +8°C° 0 mm 3 mps 744 mmHg 87%
    08:00 +9°C° 0 mm 3 mps 744 mmHg 84%
    09:00 +10°C° 0 mm 3 mps 744 mmHg 81%
    10:00 +11°C° 0 mm 4 mps 744 mmHg 78%
    11:00 +12°C° 0 mm 4 mps 743 mmHg 74%
    12:00 +13°C° 0 mm 5 mps 743 mmHg 69%
    13:00 +14°C° 0 mm 6 mps 742 mmHg 64%
    14:00 +13°C° 0 mm 5 mps 741 mmHg 66%
    15:00 +13°C° 0 mm 5 mps 741 mmHg 68%
    16:00 +12°C° 0 mm 4 mps 740 mmHg 69%
    17:00 +12°C° 0 mm 4 mps 740 mmHg 71%
    18:00 +11°C° 0 mm 4 mps 740 mmHg 73%
    19:00 +9°C° 0 mm 5 mps 740 mmHg 74%
    20:00 +9°C° 0 mm 5 mps 740 mmHg 74%
    21:00 +8°C° 0 mm 5 mps 740 mmHg 73%
    22:00 +8°C° 0 mm 5 mps 740 mmHg 73%
    23:00 +8°C° 0 mm 5 mps 741 mmHg 73%

    27 October, Saturday

    Time Temperature Precipitation Wind Pressure Humidity
    00:00 +8°C° 0 mm 6 mps 741 mmHg 72%
    01:00 +7°C° 0 mm 6 mps 741 mmHg 72%
    02:00 +7°C° 0 mm 6 mps 741 mmHg 71%
    03:00 +5°C° 0 mm 6 mps 742 mmHg 70%
    04:00 +4°C° 0 mm 6 mps 742 mmHg 69%
    05:00 +5°C° 0 mm 5 mps 742 mmHg 70%
    06:00 +3°C° 0 mm 5 mps 743 mmHg 72%
    07:00 +4°C° 0 mm 4 mps 743 mmHg 73%
    08:00 +5°C° 0 mm 4 mps 744 mmHg 70%
    09:00 +6°C° 0 mm 5 mps 744 mmHg 68%
    10:00 +6°C° 0 mm 5 mps 744 mmHg 65%
    11:00 +7°C° 0 mm 4 mps 744 mmHg 62%
    12:00 +7°C° 0 mm 4 mps 744 mmHg 60%
    13:00 +8°C° 0 mm 4 mps 744 mmHg 57%
    14:00 +9°C° 0 mm 3 mps 745 mmHg 59%
    15:00 +8°C° 0 mm 2 mps 745 mmHg 61%
    16:00 +8°C° 0 mm 2 mps 745 mmHg 62%
    17:00 +9°C° 0 mm 1 mps 745 mmHg 64%
    18:00 +8°C° 0 mm 1 mps 746 mmHg 66%
    19:00 +7°C° 0 mm 0 mps 746 mmHg 67%
    20:00 +7°C° 0 mm 0 mps 746 mmHg 68%
    21:00 +6°C° 0 mm 0 mps 747 mmHg 69%
    22:00 +7°C° 0 mm 1 mps 747 mmHg 70%
    23:00 +7°C° 0 mm 1 mps 747 mmHg 71%

    28 October, Sunday

    Time Temperature Precipitation Wind Pressure Humidity
    00:00 +7°C° 0 mm 1 mps 747 mmHg 72%
    01:00 +7°C° 0 mm 1 mps 747 mmHg 73%
    02:00 +6°C° 0 mm 2 mps 747 mmHg 74%
    03:00 +5°C° 0 mm 2 mps 747 mmHg 75%
    04:00 +5°C° 0 mm 2 mps 747 mmHg 76%
    05:00 +4°C° 0.1 mm 3 mps 747 mmHg 76%
    06:00 +4°C° 0.1 mm 3 mps 747 mmHg 76%
    07:00 +4°C° 0.1 mm 3 mps 748 mmHg 77%
    08:00 +5°C° 0.1 mm 4 mps 748 mmHg 75%
    09:00 +5°C° 0.1 mm 4 mps 748 mmHg 73%
    10:00 +6°C° 0.1 mm 5 mps 748 mmHg 71%
    11:00 +5°C° 0.8 mm 5 mps 747 mmHg 72%
    12:00 +4°C° 0.8 mm 6 mps 747 mmHg 74%
    13:00 +4°C° 0.8 mm 6 mps 747 mmHg 75%
    14:00 +4°C° 1 mm 6 mps 747 mmHg 77%
    15:00 +3°C° 1 mm 7 mps 747 mmHg 79%
    16:00 +3°C° 1 mm 7 mps 746 mmHg 81%
    17:00 +3°C° 0.3 mm 7 mps 746 mmHg 81%
    18:00 +3°C° 0.3 mm 7 mps 746 mmHg 82%
    19:00 +3°C° 0.3 mm 7 mps 746 mmHg 83%
    20:00 +3°C° 0.4 mm 7 mps 745 mmHg 84%
    21:00 +3°C° 0.4 mm 7 mps 745 mmHg 85%
    22:00 +3°C° 0.4 mm 7 mps 744 mmHg 86%
    23:00 +3°C° 1.5 mm 6 mps 744 mmHg 87%

    29 October, Monday

    Time Temperature Precipitation Wind Pressure Humidity
    00:00 +3°C° 1.5 mm 6 mps 743 mmHg 89%
    01:00 +3°C° 1.5 mm 6 mps 742 mmHg 90%
    02:00 +4°C° 1 mm 6 mps 742 mmHg 91%
    03:00 +4°C° 1 mm 6 mps 741 mmHg 91%
    04:00 +4°C° 1 mm 6 mps 740 mmHg 91%
    05:00 +4°C° 1.7 mm 6 mps 740 mmHg 92%
    06:00 +5°C° 1.7 mm 5 mps 740 mmHg 92%
    07:00 +6°C° 1.7 mm 5 mps 739 mmHg 93%
    08:00 +6°C° 0.6 mm 4 mps 739 mmHg 92%
    09:00 +6°C° 0.6 mm 4 mps 739 mmHg 92%
    10:00 +8°C° 0.6 mm 3 mps 739 mmHg 92%
    11:00 +8°C° 0.2 mm 3 mps 738 mmHg 92%
    12:00 +9°C° 0.2 mm 3 mps 738 mmHg 92%
    13:00 +9°C° 0.2 mm 2 mps 738 mmHg 92%
    14:00 +9°C° 0.1 mm 2 mps 738 mmHg 93%
    15:00 +9°C° 0.1 mm 2 mps 738 mmHg 93%
    16:00 +10°C° 0.1 mm 2 mps 737 mmHg 94%
    17:00 +10°C° 0 mm 2 mps 738 mmHg 94%
    18:00 +10°C° 0 mm 2 mps 738 mmHg 94%
    19:00 +10°C° 0 mm 2 mps 738 mmHg 94%
    20:00 +11°C° 0 mm 3 mps 738 mmHg 93%
    21:00 +11°C° 0 mm 3 mps 738 mmHg 93%
    22:00 +11°C° 0 mm 4 mps 738 mmHg 93%
    23:00 +11°C° 0 mm 4 mps 738 mmHg 92%

    30 October, Tuesday

    Time Temperature Precipitation Wind Pressure Humidity
    00:00 +11°C° 0 mm 4 mps 737 mmHg 92%
    01:00 +11°C° 0 mm 4 mps 737 mmHg 91%
    02:00 +12°C° 0.2 mm 4 mps 737 mmHg 90%
    03:00 +12°C° 0.2 mm 4 mps 736 mmHg 89%
    04:00 +12°C° 0.2 mm 4 mps 736 mmHg 88%
    05:00 +12°C° 0 mm 4 mps 736 mmHg 87%
    06:00 +12°C° 0 mm 5 mps 736 mmHg 85%
    07:00 +13°C° 0 mm 5 mps 736 mmHg 83%
    08:00 +14°C° 0 mm 5 mps 736 mmHg 80%
    09:00 +15°C° 0 mm 6 mps 737 mmHg 77%
    10:00 +15°C° 0 mm 6 mps 738 mmHg 73%
    11:00 +15°C° 0 mm 5 mps 738 mmHg 71%
    12:00 +15°C° 0 mm 4 mps 738 mmHg 69%
    13:00 +16°C° 0 mm 3 mps 738 mmHg 67%
    14:00 +14°C° 0 mm 3 mps 739 mmHg 70%
    15:00 +15°C° 0 mm 2 mps 739 mmHg 73%
    16:00 +14°C° 0 mm 2 mps 739 mmHg 77%
    17:00 +13°C° 0 mm 2 mps 740 mmHg 77%
    18:00 +11°C° 0 mm 3 mps 740 mmHg 78%
    19:00 +10°C° 0 mm 3 mps 740 mmHg 79%
    20:00 +10°C° 0.1 mm 3 mps 741 mmHg 80%
    21:00 +8°C° 0.1 mm 4 mps 741 mmHg 81%
    22:00 +8°C° 0.1 mm 4 mps 741 mmHg 82%
    23:00 +7°C° 0.2 mm 4 mps 742 mmHg 80%
    Show more